Flag Weather past 2 weeks in Newport News, Virginia, U.S.A.

Now
36 °F

Light rain. Clear.


Feels Like: 36 °F
Forecast: 39 / 59 °F
Wind: No wind

Location: Newport News / Williamsburg International Airport

Current Time: Nov 22, 2014 at 7:12:55 PM

Latest Report: Nov 22, 2014 at 6:54 PM


Visibility: 10 mi

Pressure: 30.37 "Hg

Humidity: 64%

Dew point: 25 °F

Location of Newport NewsLocation

Historic Weather in Newport News — Graph

°F

Newport News temperature yesterday

Maximum temperature yesterday: 44 °F (at 11:54 AM)
Minimum temperature yesterday: 26 °F (at 10:54 PM)
Average temperature yesterday: 35 °F

Past Weeks' High & Low Weather Summary

 TemperatureHumidityPressure
High74 °F (Nov 12, 1:54 PM)93% (Nov 10, 7:54 AM)30.58 "Hg (Nov 10, 7:54 AM)
Low24 °F (Nov 22, 4:54 AM)26% (Nov 22, 1:54 PM)29.55 "Hg (Nov 17, 4:54 PM)
Average47 °F61%30.12 "Hg
* Reported Nov 7 5:54 PM — Nov 22 5:54 PM, Newport News, Weather by CustomWeather, © 2014

Note: Actual official high and low records may vary slightly from our data, if they occured in-between our weather recording intervals... More about our weather records

Advertising

Newport News weather history for previous 24 hours

 ConditionsComfort  
Time TempWeatherWind HumidityBarometerVisibility
5:54 PM
Nov 22
43 °FLight rain. Clear.3 mph47%30.38 "Hg10 mi
4:54 PM47 °FClear.5 mph36%30.39 "Hg10 mi
3:54 PM51 °FSunny.8 mph28%30.40 "Hg10 mi
2:54 PM52 °FSunny.14 mph27%30.41 "Hg10 mi
1:54 PM52 °FSunny.12 mph26%30.43 "Hg10 mi
12:54 PM50 °FSunny.10 mph28%30.47 "Hg10 mi
11:54 AM49 °FSunny.12 mph29%30.51 "Hg10 mi
10:54 AM46 °FSunny.13 mph33%30.55 "Hg10 mi
9:54 AM44 °FSunny.9 mph43%30.58 "Hg10 mi
8:54 AM40 °FSunny.7 mph60%30.58 "Hg8 mi
7:54 AM30 °FSunny.No wind79%30.56 "Hg5 mi
6:54 AM24 °FSunny.No wind81%30.56 "Hg6 mi
5:54 AM25 °FLight snow. Clear.No wind78%30.56 "Hg8 mi
4:54 AM24 °FLight snow. Clear.No wind77%30.55 "Hg9 mi
3:54 AM27 °FLight snow. Clear.No wind72%30.56 "Hg10 mi
2:54 AM26 °FLight snow. Clear.No wind74%30.57 "Hg8 mi
1:54 AM25 °FClear.No wind75%30.56 "Hg10 mi
12:54 AM26 °FClear.No wind71%30.57 "Hg9 mi
11:54 PM
Nov 21
26 °FClear.No wind69%30.56 "Hg10 mi
10:54 PM26 °FClear.No wind69%30.56 "Hg10 mi
9:54 PM29 °FClear.No wind61%30.57 "Hg10 mi
8:54 PM30 °FClear.No wind59%30.56 "Hg10 mi
7:54 PM30 °FClear.3 mph59%30.55 "Hg10 mi
Weather by CustomWeather, © 2014

See weather overviewHow to use our weather pages